{"data":{"norad_id":69025,"intl_designator":"2026-101A","name":"STARLINK-37592","alt_names":[],"object_type":"PAYLOAD","status":"ACTIVE","operator":null,"country":"US","launch_date":"2026-05-06","launch_site_code":"AFWTR","launch_vehicle":null,"mission":null,"orbit_class":"UNKNOWN","rcs_meters":null,"size_class":null,"mass_kg":null,"dimensions":null,"purposes":["comms"],"wikipedia_slug":null,"has_3d_model":false,"image_url":null,"decayed_at":null,"tle_current":{"epoch":"2026-05-25T03:40:43.551840Z","epoch_age_seconds":72249,"freshness":"FRESH","line1":"1 69025U 26101A   26145.15328185  .00151710  00000+0  99846-3 0  9996","line2":"2 69025  97.2849 359.8905 0001179  82.9209 277.2190 15.75226506  3011","mean_motion":15.75226506,"eccentricity":0.0001179,"inclination_deg":97.2849,"raan_deg":359.8905,"arg_perigee_deg":82.9209,"mean_anomaly_deg":277.219,"bstar":0.00099846,"rev_number":301,"period_min":91.415424671631,"perigee_km":343.19417112555,"apogee_km":344.77924789626,"semimajor_km":6722.1237095109,"source":"CELESTRAK","updated_at":"2026-05-25T13:38:22.078819Z"}}}